Time,TemperatureF,DewpointF,PressureIn,WindDirection,WindDirectionDegrees,WindSpeedMPH,WindSpeedGustMPH,Humidity,HourlyPrecipIn,Conditions,Clouds,dailyrainin,SoftwareType,DateUTC
2013-02-23 00:00:00,39.1,-99.9,29.88,South,185,2.5,13.3,-999,0.00,,,0.00,homebrew,2013-02-23 08:00:00,
2013-02-23 00:05:00,39.1,-99.9,29.88,SSW,193,2.5,5.4,-999,0.00,,,0.00,homebrew,2013-02-23 08:05:00,
2013-02-23 00:10:00,39.0,-99.9,29.89,South,190,3.2,8.0,-999,0.00,,,0.00,homebrew,2013-02-23 08:10:00,
2013-02-23 00:15:00,38.9,-99.9,29.89,SSW,195,3.4,8.9,-999,0.00,,,0.00,homebrew,2013-02-23 08:15:00,
2013-02-23 00:25:00,38.8,-99.9,29.89,South,188,3.2,9.7,-999,0.00,,,0.00,homebrew,2013-02-23 08:25:00,
2013-02-23 00:30:00,38.8,-99.9,29.89,SSW,195,3.6,12.1,-999,0.00,,,0.00,homebrew,2013-02-23 08:30:00,
2013-02-23 00:35:00,38.7,-99.9,29.89,SSW,202,3.3,8.1,-999,0.00,,,0.00,homebrew,2013-02-23 08:35:00,
2013-02-23 00:40:00,38.7,-99.9,29.90,SSW,202,3.6,7.1,-999,0.00,,,0.00,homebrew,2013-02-23 08:40:00,
2013-02-23 00:45:00,38.8,-99.9,29.90,SSW,198,2.9,8.7,-999,0.00,,,0.00,homebrew,2013-02-23 08:45:00,
2013-02-23 00:50:00,38.8,-99.9,29.89,SSW,201,3.9,8.4,-999,0.00,,,0.00,homebrew,2013-02-23 08:50:00,
2013-02-23 00:55:00,38.7,-99.9,29.89,SSW,212,3.5,9.3,-999,0.00,,,0.00,homebrew,2013-02-23 08:55:00,
2013-02-23 01:00:00,38.8,-99.9,29.89,SSW,212,5.9,9.8,-999,0.00,,,0.00,homebrew,2013-02-23 09:00:00,
2013-02-23 01:05:00,38.7,-99.9,29.89,SSW,212,3.7,12.1,-999,0.00,,,0.00,homebrew,2013-02-23 09:05:00,
2013-02-23 01:10:00,38.6,-99.9,29.90,SSW,205,3.7,10.9,-999,0.00,,,0.00,homebrew,2013-02-23 09:10:00,
2013-02-23 01:15:00,38.6,-99.9,29.90,SSW,209,3.9,9.5,-999,0.00,,,0.00,homebrew,2013-02-23 09:15:00,
2013-02-23 01:20:00,38.7,-99.9,29.90,SSW,208,3.6,8.8,-999,0.00,,,0.00,homebrew,2013-02-23 09:20:00,
2013-02-23 01:25:00,38.6,-99.9,29.90,SSW,205,3.3,7.2,-999,0.00,,,0.00,homebrew,2013-02-23 09:25:00,
2013-02-23 01:30:00,38.6,-99.9,29.90,SSW,200,3.4,8.8,-999,0.00,,,0.00,homebrew,2013-02-23 09:30:00,
2013-02-23 01:35:00,38.7,-99.9,29.91,SSW,204,3.6,8.5,-999,0.00,,,0.00,homebrew,2013-02-23 09:35:00,
2013-02-23 01:40:00,38.8,-99.9,29.92,SSW,201,3.4,8.6,-999,0.00,,,0.00,homebrew,2013-02-23 09:40:00,
2013-02-23 01:45:00,38.9,-99.9,29.91,SSW,203,2.5,7.8,-999,0.00,,,0.00,homebrew,2013-02-23 09:45:00,
2013-02-23 01:50:00,38.9,-99.9,29.91,SSW,202,2.8,6.2,-999,0.00,,,0.00,homebrew,2013-02-23 09:50:00,
2013-02-23 01:55:00,38.9,-99.9,29.91,SSW,207,3.5,7.0,-999,0.00,,,0.00,homebrew,2013-02-23 09:55:00,
2013-02-23 02:00:00,38.8,-99.9,29.91,SSW,207,3.3,10.2,-999,0.00,,,0.00,homebrew,2013-02-23 10:00:00,
2013-02-23 02:05:00,38.8,-99.9,29.92,SSW,205,3.3,7.2,-999,0.00,,,0.00,homebrew,2013-02-23 10:05:00,
2013-02-23 02:10:00,38.8,-99.9,29.92,SSW,209,4.7,10.1,-999,0.00,,,0.00,homebrew,2013-02-23 10:10:00,
2013-02-23 02:15:00,38.8,-99.9,29.92,SSW,213,2.8,12.5,-999,0.00,,,0.00,homebrew,2013-02-23 10:15:00,
2013-02-23 02:20:00,38.8,-99.9,29.92,SSW,211,2.7,7.9,-999,0.00,,,0.00,homebrew,2013-02-23 10:20:00,
2013-02-23 02:25:00,38.8,-99.9,29.92,SSW,202,2.8,6.5,-999,0.00,,,0.00,homebrew,2013-02-23 10:25:00,
2013-02-23 02:30:00,38.8,-99.9,29.92,SSW,197,3.2,11.8,-999,0.00,,,0.00,homebrew,2013-02-23 10:30:00,
2013-02-23 02:35:00,38.9,-99.9,29.93,South,190,1.5,10.3,-999,0.00,,,0.00,homebrew,2013-02-23 10:35:00,
2013-02-23 02:40:00,38.9,-99.9,29.93,South,190,1.6,5.1,-999,0.00,,,0.00,homebrew,2013-02-23 10:40:00,
2013-02-23 02:45:00,38.8,-99.9,29.93,SSW,204,2.5,3.7,-999,0.00,,,0.00,homebrew,2013-02-23 10:45:00,
2013-02-23 02:50:00,38.9,-99.9,29.93,SSW,205,3.5,6.3,-999,0.00,,,0.00,homebrew,2013-02-23 10:50:00,
2013-02-23 02:55:00,38.9,-99.9,29.93,SW,220,2.9,9.1,-999,0.00,,,0.00,homebrew,2013-02-23 10:55:00,
2013-02-23 03:00:00,38.9,-99.9,29.93,SSW,198,3.8,6.5,-999,0.00,,,0.00,homebrew,2013-02-23 11:00:00,
2013-02-23 03:10:00,38.9,-99.9,29.94,SSW,205,3.6,6.1,-999,0.00,,,0.00,homebrew,2013-02-23 11:10:00,
2013-02-23 03:15:00,38.8,-99.9,29.94,SSW,192,3.3,9.6,-999,0.00,,,0.00,homebrew,2013-02-23 11:15:00,
2013-02-23 03:20:00,38.8,-99.9,29.94,SSW,205,3.2,11.1,-999,0.00,,,0.00,homebrew,2013-02-23 11:20:00,
2013-02-23 03:25:00,38.8,-99.9,29.94,SSW,207,3.8,10.4,-999,0.00,,,0.00,homebrew,2013-02-23 11:25:00,
2013-02-23 03:30:00,38.7,-99.9,29.94,SSW,199,3.2,6.2,-999,0.00,,,0.00,homebrew,2013-02-23 11:30:00,
2013-02-23 03:35:00,38.6,-99.9,29.95,South,189,3.4,9.3,-999,0.00,,,0.00,homebrew,2013-02-23 11:35:00,
2013-02-23 03:40:00,38.5,-99.9,29.94,South,191,3.8,8.9,-999,0.00,,,0.00,homebrew,2013-02-23 11:40:00,
2013-02-23 03:45:00,38.5,-99.9,29.95,SSW,213,3.5,8.3,-999,0.00,,,0.00,homebrew,2013-02-23 11:45:00,
2013-02-23 03:50:00,38.4,-99.9,29.95,SSW,196,3.6,8.6,-999,0.00,,,0.00,homebrew,2013-02-23 11:50:00,
2013-02-23 04:00:00,38.3,-99.9,29.95,SSW,210,2.7,11.3,-999,0.00,,,0.00,homebrew,2013-02-23 12:00:00,
2013-02-23 04:05:00,38.3,-99.9,29.95,SSW,202,3.1,7.8,-999,0.00,,,0.00,homebrew,2013-02-23 12:05:00,
2013-02-23 04:10:00,38.4,-99.9,29.96,South,183,2.1,6.3,-999,0.00,,,0.00,homebrew,2013-02-23 12:10:00,
2013-02-23 04:15:00,38.4,-99.9,29.96,SSW,197,3.3,8.6,-999,0.00,,,0.00,homebrew,2013-02-23 12:15:00,
2013-02-23 04:20:00,38.4,-99.9,29.96,SSW,194,3.1,8.3,-999,0.00,,,0.00,homebrew,2013-02-23 12:20:00,
2013-02-23 04:25:00,38.5,-99.9,29.96,SSW,196,2.1,8.2,-999,0.00,,,0.00,homebrew,2013-02-23 12:25:00,
2013-02-23 04:30:00,38.5,-99.9,29.97,South,191,2.5,7.6,-999,0.00,,,0.00,homebrew,2013-02-23 12:30:00,
2013-02-23 04:35:00,38.6,-99.9,29.97,South,191,3.4,5.7,-999,0.00,,,0.00,homebrew,2013-02-23 12:35:00,
2013-02-23 04:40:00,38.6,-99.9,29.97,SSW,206,2.6,11.0,-999,0.00,,,0.00,homebrew,2013-02-23 12:40:00,
2013-02-23 04:50:00,38.6,-99.9,29.97,South,183,1.9,4.9,-999,0.00,,,0.00,homebrew,2013-02-23 12:50:00,
2013-02-23 04:55:00,38.6,-99.9,29.97,South,178,2.4,6.2,-999,0.00,,,0.00,homebrew,2013-02-23 12:55:00,
2013-02-23 05:05:00,38.7,-99.9,29.98,South,185,2.2,7.6,-999,0.00,,,0.00,homebrew,2013-02-23 13:05:00,
2013-02-23 05:10:00,38.7,-99.9,29.98,SSE,166,1.6,7.1,-999,0.00,,,0.00,homebrew,2013-02-23 13:10:00,
2013-02-23 05:15:00,38.8,-99.9,29.98,South,172,3.0,8.0,-999,0.00,,,0.00,homebrew,2013-02-23 13:15:00,
2013-02-23 05:20:00,38.9,-99.9,29.99,SSE,161,1.7,6.2,-999,0.00,,,0.00,homebrew,2013-02-23 13:20:00,
2013-02-23 05:25:00,39.0,-99.9,29.99,South,191,2.5,6.7,-999,0.00,,,0.00,homebrew,2013-02-23 13:25:00,
2013-02-23 05:30:00,39.1,-99.9,30.00,South,185,2.5,7.0,-999,0.00,,,0.00,homebrew,2013-02-23 13:30:00,
2013-02-23 05:40:00,39.2,-99.9,30.00,South,180,1.7,6.8,-999,0.00,,,0.00,homebrew,2013-02-23 13:40:00,
2013-02-23 05:45:00,39.2,-99.9,29.99,South,183,1.7,6.3,-999,0.00,,,0.00,homebrew,2013-02-23 13:45:00,
2013-02-23 05:50:00,39.2,-99.9,30.00,South,179,3.0,5.5,-999,0.00,,,0.00,homebrew,2013-02-23 13:50:00,
2013-02-23 05:55:00,39.2,-99.9,30.01,SSW,195,2.5,7.6,-999,0.00,,,0.00,homebrew,2013-02-23 13:55:00,
2013-02-23 06:00:00,39.2,-99.9,30.01,SSW,196,1.8,7.7,-999,0.00,,,0.00,homebrew,2013-02-23 14:00:00,
2013-02-23 06:05:00,39.2,-99.9,30.01,SSW,196,2.2,8.3,-999,0.00,,,0.00,homebrew,2013-02-23 14:05:00,
2013-02-23 06:10:00,39.3,-99.9,30.02,South,174,2.1,7.1,-999,0.00,,,0.00,homebrew,2013-02-23 14:10:00,
2013-02-23 06:15:00,39.3,-99.9,30.02,South,170,0.8,6.2,-999,0.00,,,0.00,homebrew,2013-02-23 14:15:00,
2013-02-23 06:20:00,39.3,-99.9,30.02,South,186,3.4,4.9,-999,0.00,,,0.00,homebrew,2013-02-23 14:20:00,
2013-02-23 06:25:00,39.4,-99.9,30.03,South,176,1.2,8.0,-999,0.00,,,0.00,homebrew,2013-02-23 14:25:00,
2013-02-23 06:30:00,39.4,-99.9,30.03,South,176,1.5,4.3,-999,0.00,,,0.00,homebrew,2013-02-23 14:30:00,
2013-02-23 06:35:00,39.4,-99.9,30.03,South,180,1.6,6.0,-999,0.00,,,0.00,homebrew,2013-02-23 14:35:00,
2013-02-23 06:45:00,39.5,-99.9,30.04,South,186,1.6,6.3,-999,0.00,,,0.00,homebrew,2013-02-23 14:45:00,
2013-02-23 06:50:00,39.5,-99.9,30.04,SSE,168,1.2,6.2,-999,0.00,,,0.00,homebrew,2013-02-23 14:50:00,
2013-02-23 06:55:00,39.5,-99.9,30.04,SSE,166,1.0,2.9,-999,0.00,,,0.00,homebrew,2013-02-23 14:55:00,
2013-02-23 07:00:00,39.6,-99.9,30.05,SSE,156,0.0,5.2,-999,0.00,,,0.00,homebrew,2013-02-23 15:00:00,
2013-02-23 07:05:00,39.6,-99.9,30.05,South,172,2.9,4.7,-999,0.00,,,0.00,homebrew,2013-02-23 15:05:00,
2013-02-23 07:10:00,39.8,-99.9,30.05,SSE,152,2.0,8.8,-999,0.00,,,0.00,homebrew,2013-02-23 15:10:00,
2013-02-23 07:15:00,39.8,-99.9,30.05,South,181,2.3,8.1,-999,0.00,,,0.00,homebrew,2013-02-23 15:15:00,
2013-02-23 07:20:00,39.9,-99.9,30.06,South,186,1.4,5.9,-999,0.00,,,0.00,homebrew,2013-02-23 15:20:00,
2013-02-23 07:30:00,39.9,-99.9,30.06,SSE,168,1.2,6.7,-999,0.00,,,0.00,homebrew,2013-02-23 15:30:00,
2013-02-23 07:35:00,39.9,-99.9,30.06,SSE,162,0.8,7.7,-999,0.00,,,0.00,homebrew,2013-02-23 15:35:00,
2013-02-23 07:40:00,39.9,-99.9,30.07,South,171,1.1,2.7,-999,0.00,,,0.00,homebrew,2013-02-23 15:40:00,
2013-02-23 07:50:00,39.9,-99.9,30.06,SSE,163,1.3,0.0,-999,0.00,,,0.00,homebrew,2013-02-23 15:50:00,
2013-02-23 07:55:00,39.9,-99.9,30.07,SSW,193,2.4,8.4,-999,0.00,,,0.00,homebrew,2013-02-23 15:55:00,
2013-02-23 08:00:00,40.0,-99.9,30.06,SSW,195,1.0,7.7,-999,0.00,,,0.00,homebrew,2013-02-23 16:00:00,
2013-02-23 08:05:00,40.0,-99.9,30.07,SSW,196,1.8,5.8,-999,0.00,,,0.00,homebrew,2013-02-23 16:05:00,
2013-02-23 08:10:00,40.1,-99.9,30.08,South,182,1.5,6.4,-999,0.00,,,0.00,homebrew,2013-02-23 16:10:00,
2013-02-23 08:15:00,40.2,-99.9,30.08,South,172,2.0,4.2,-999,0.00,,,0.00,homebrew,2013-02-23 16:15:00,
2013-02-23 08:25:00,40.4,-99.9,30.08,South,179,1.6,6.5,-999,0.00,,,0.00,homebrew,2013-02-23 16:25:00,
2013-02-23 08:30:00,40.5,-99.9,30.08,South,176,3.6,6.7,-999,0.00,,,0.00,homebrew,2013-02-23 16:30:00,
2013-02-23 08:40:00,40.8,-99.9,30.09,South,177,3.4,6.3,-999,0.00,,,0.00,homebrew,2013-02-23 16:40:00,
2013-02-23 08:45:00,40.9,-99.9,30.09,South,177,3.3,10.3,-999,0.00,,,0.00,homebrew,2013-02-23 16:45:00,
2013-02-23 08:50:00,40.9,-99.9,30.10,South,182,3.2,10.3,-999,0.00,,,0.00,homebrew,2013-02-23 16:50:00,
2013-02-23 08:55:00,40.9,-99.9,30.10,South,180,3.7,10.7,-999,0.00,,,0.00,homebrew,2013-02-23 16:55:00,
2013-02-23 09:00:00,40.9,-99.9,30.11,South,180,1.9,10.9,-999,0.00,,,0.00,homebrew,2013-02-23 17:00:00,
2013-02-23 09:05:00,41.2,-99.9,30.11,SE,136,1.3,5.3,-999,0.00,,,0.00,homebrew,2013-02-23 17:05:00,
2013-02-23 09:10:00,41.3,-99.9,30.12,SSE,165,1.7,7.6,-999,0.00,,,0.00,homebrew,2013-02-23 17:10:00,
2013-02-23 09:15:00,41.6,-99.9,30.12,SSW,197,2.4,6.3,-999,0.00,,,0.00,homebrew,2013-02-23 17:15:00,
2013-02-23 09:20:00,41.6,-99.9,30.12,SSE,147,1.9,6.8,-999,0.00,,,0.00,homebrew,2013-02-23 17:20:00,
2013-02-23 09:30:00,41.8,-99.9,30.13,South,183,2.9,8.0,-999,0.00,,,0.00,homebrew,2013-02-23 17:30:00,
2013-02-23 09:35:00,41.8,-99.9,30.13,South,176,1.2,6.8,-999,0.00,,,0.00,homebrew,2013-02-23 17:35:00,
2013-02-23 09:45:00,42.3,-99.9,30.13,South,169,1.1,7.3,-999,0.00,,,0.00,homebrew,2013-02-23 17:45:00,
2013-02-23 09:50:00,42.3,-99.9,30.13,South,190,2.9,6.2,-999,0.00,,,0.00,homebrew,2013-02-23 17:50:00,
2013-02-23 09:55:00,42.2,-99.9,30.13,South,181,3.7,9.6,-999,0.00,,,0.00,homebrew,2013-02-23 17:55:00,
2013-02-23 10:00:00,42.3,-99.9,30.14,South,178,3.0,9.5,-999,0.00,,,0.00,homebrew,2013-02-23 18:00:00,
2013-02-23 10:05:00,42.3,-99.9,30.14,South,179,4.1,10.4,-999,0.00,,,0.00,homebrew,2013-02-23 18:05:00,
2013-02-23 10:10:00,42.4,-99.9,30.14,South,178,2.1,8.4,-999,0.00,,,0.00,homebrew,2013-02-23 18:10:00,
2013-02-23 10:20:00,42.9,-99.9,30.14,South,185,3.3,5.4,-999,0.00,,,0.00,homebrew,2013-02-23 18:20:00,
2013-02-23 10:25:00,42.8,-99.9,30.14,South,169,3.7,10.2,-999,0.00,,,0.00,homebrew,2013-02-23 18:25:00,
2013-02-23 10:30:00,43.0,-99.9,30.14,South,186,2.8,8.9,-999,0.00,,,0.00,homebrew,2013-02-23 18:30:00,
2013-02-23 10:35:00,43.3,-99.9,30.14,South,169,0.9,8.5,-999,0.00,,,0.00,homebrew,2013-02-23 18:35:00,
2013-02-23 10:40:00,43.7,-99.9,30.15,SSE,166,0.9,3.6,-999,0.00,,,0.00,homebrew,2013-02-23 18:40:00,
2013-02-23 10:45:00,44.0,-99.9,30.15,South,170,1.6,4.6,-999,0.00,,,0.00,homebrew,2013-02-23 18:45:00,
2013-02-23 10:50:00,44.0,-99.9,30.15,South,181,2.6,6.6,-999,0.00,,,0.00,homebrew,2013-02-23 18:50:00,
2013-02-23 10:55:00,43.8,-99.9,30.15,SSW,194,2.0,7.5,-999,0.00,,,0.00,homebrew,2013-02-23 18:55:00,
2013-02-23 11:00:00,43.9,-99.9,30.15,South,181,2.4,5.5,-999,0.00,,,0.00,homebrew,2013-02-23 19:00:00,
2013-02-23 11:05:00,44.3,-99.9,30.15,SSW,194,2.5,8.6,-999,0.00,,,0.00,homebrew,2013-02-23 19:05:00,
2013-02-23 11:10:00,44.5,-99.9,30.15,SSW,198,2.9,5.7,-999,0.00,,,0.00,homebrew,2013-02-23 19:10:00,
2013-02-23 11:15:00,44.3,-99.9,30.16,SSW,195,3.2,9.4,-999,0.00,,,0.00,homebrew,2013-02-23 19:15:00,
2013-02-23 11:20:00,44.1,-99.9,30.16,SSW,194,3.0,6.5,-999,0.00,,,0.00,homebrew,2013-02-23 19:20:00,
2013-02-23 11:25:00,44.2,-99.9,30.15,South,175,1.8,10.3,-999,0.00,,,0.00,homebrew,2013-02-23 19:25:00,
2013-02-23 11:30:00,44.3,-99.9,30.16,South,180,3.7,9.8,-999,0.00,,,0.00,homebrew,2013-02-23 19:30:00,
2013-02-23 11:35:00,45.4,-99.9,30.16,SSW,206,1.5,8.6,-999,0.00,,,0.00,homebrew,2013-02-23 19:35:00,
2013-02-23 11:40:00,46.6,-99.9,30.16,South,182,2.9,6.4,-999,0.00,,,0.00,homebrew,2013-02-23 19:40:00,
2013-02-23 11:45:00,46.0,-99.9,30.16,South,180,2.7,8.6,-999,0.00,,,0.00,homebrew,2013-02-23 19:45:00,
2013-02-23 11:50:00,45.8,-99.9,30.17,South,179,2.0,7.7,-999,0.00,,,0.00,homebrew,2013-02-23 19:50:00,
2013-02-23 11:55:00,45.5,-99.9,30.17,SSW,194,1.8,6.6,-999,0.00,,,0.00,homebrew,2013-02-23 19:55:00,
2013-02-23 12:00:00,45.9,-99.9,30.17,South,186,1.7,5.5,-999,0.00,,,0.00,homebrew,2013-02-23 20:00:00,
2013-02-23 12:05:00,45.9,-99.9,30.17,South,173,2.5,6.0,-999,0.00,,,0.00,homebrew,2013-02-23 20:05:00,
2013-02-23 12:15:00,46.3,-99.9,30.17,SSW,192,1.9,6.1,-999,0.00,,,0.00,homebrew,2013-02-23 20:15:00,
2013-02-23 12:20:00,46.5,-99.9,30.16,SSE,149,1.7,5.9,-999,0.00,,,0.00,homebrew,2013-02-23 20:20:00,
2013-02-23 12:25:00,46.4,-99.9,30.17,SSW,198,1.8,10.7,-999,0.00,,,0.00,homebrew,2013-02-23 20:25:00,
2013-02-23 12:30:00,46.4,-99.9,30.17,South,174,2.2,6.2,-999,0.00,,,0.00,homebrew,2013-02-23 20:30:00,
2013-02-23 12:35:00,46.9,-99.9,30.17,South,191,0.3,6.2,-999,0.00,,,0.00,homebrew,2013-02-23 20:35:00,
2013-02-23 12:40:00,47.2,-99.9,30.17,South,175,1.2,2.7,-999,0.00,,,0.00,homebrew,2013-02-23 20:40:00,
2013-02-23 12:45:00,47.0,-99.9,30.17,SSW,201,1.8,4.4,-999,0.00,,,0.00,homebrew,2013-02-23 20:45:00,
2013-02-23 12:50:00,46.5,-99.9,30.17,WSW,239,2.2,7.3,-999,0.00,,,0.00,homebrew,2013-02-23 20:50:00,
2013-02-23 12:55:00,46.5,-99.9,30.17,WSW,239,0.6,6.2,-999,0.00,,,0.00,homebrew,2013-02-23 20:55:00,
2013-02-23 13:05:00,46.6,-99.9,30.17,SW,226,1.7,4.3,-999,0.00,,,0.00,homebrew,2013-02-23 21:05:00,
2013-02-23 13:10:00,46.6,-99.9,30.17,SW,215,1.0,4.3,-999,0.00,,,0.00,homebrew,2013-02-23 21:10:00,
2013-02-23 13:20:00,46.9,-99.9,30.17,SSW,212,0.4,4.5,-999,0.00,,,0.00,homebrew,2013-02-23 21:20:00,
2013-02-23 13:25:00,47.0,-99.9,30.17,SSE,162,1.4,4.2,-999,0.00,,,0.00,homebrew,2013-02-23 21:25:00,
2013-02-23 13:30:00,47.2,-99.9,30.17,SSE,159,0.9,3.8,-999,0.00,,,0.00,homebrew,2013-02-23 21:30:00,
2013-02-23 13:35:00,47.4,-99.9,30.17,South,171,0.0,5.5,-999,0.00,,,0.00,homebrew,2013-02-23 21:35:00,
2013-02-23 13:40:00,47.8,-99.9,30.17,SSE,164,0.8,0.0,-999,0.00,,,0.00,homebrew,2013-02-23 21:40:00,
2013-02-23 13:45:00,47.6,-99.9,30.17,SSE,159,2.3,3.5,-999,0.00,,,0.00,homebrew,2013-02-23 21:45:00,
2013-02-23 13:50:00,47.3,-99.9,30.18,SSW,194,0.5,6.3,-999,0.00,,,0.00,homebrew,2013-02-23 21:50:00,
2013-02-23 13:55:00,47.2,-99.9,30.18,WSW,246,1.1,3.6,-999,0.00,,,0.00,homebrew,2013-02-23 21:55:00,
2013-02-23 14:00:00,47.5,-99.9,30.17,WSW,248,0.6,4.3,-999,0.00,,,0.00,homebrew,2013-02-23 22:00:00,
2013-02-23 14:10:00,47.1,-99.9,30.18,East,95,2.1,8.3,-999,0.00,,,0.00,homebrew,2013-02-23 22:10:00,
2013-02-23 14:15:00,47.5,-99.9,30.18,NE,35,1.4,3.9,-999,0.00,,,0.00,homebrew,2013-02-23 22:15:00,
2013-02-23 14:25:00,47.9,-99.9,30.18,SW,221,0.4,2.5,-999,0.00,,,0.00,homebrew,2013-02-23 22:25:00,
2013-02-23 14:30:00,48.0,-99.9,30.19,SSE,158,0.5,4.0,-999,0.00,,,0.00,homebrew,2013-02-23 22:30:00,
2013-02-23 14:35:00,48.3,-99.9,30.19,SW,215,0.7,2.4,-999,0.00,,,0.00,homebrew,2013-02-23 22:35:00,
2013-02-23 14:45:00,48.4,-99.9,30.19,SSW,207,0.9,4.0,-999,0.00,,,0.00,homebrew,2013-02-23 22:45:00,
2013-02-23 14:50:00,49.0,-99.9,30.19,WNW,284,1.8,5.1,-999,0.00,,,0.00,homebrew,2013-02-23 22:50:00,
2013-02-23 15:00:00,48.1,-99.9,30.20,West,260,0.6,4.2,-999,0.00,,,0.00,homebrew,2013-02-23 23:00:00,
2013-02-23 15:05:00,48.6,-99.9,30.20,South,190,0.5,2.2,-999,0.00,,,0.00,homebrew,2013-02-23 23:05:00,
2013-02-23 15:15:00,48.7,-99.9,30.20,East,79,0.5,1.3,-999,0.00,,,0.00,homebrew,2013-02-23 23:15:00,
2013-02-23 15:20:00,48.9,-99.9,30.21,NE,36,0.0,2.4,-999,0.00,,,0.00,homebrew,2013-02-23 23:20:00,
2013-02-23 15:25:00,48.8,-99.9,30.20,West,281,0.7,0.7,-999,0.00,,,0.00,homebrew,2013-02-23 23:25:00,
2013-02-23 15:30:00,48.4,-99.9,30.21,WNW,297,0.5,2.8,-999,0.00,,,0.00,homebrew,2013-02-23 23:30:00,
2013-02-23 15:35:00,48.3,-99.9,30.21,WNW,286,0.0,3.2,-999,0.00,,,0.00,homebrew,2013-02-23 23:35:00,
2013-02-23 15:40:00,48.3,-99.9,30.21,NNW,334,0.0,1.0,-999,0.00,,,0.00,homebrew,2013-02-23 23:40:00,
2013-02-23 15:45:00,47.7,-99.9,30.21,West,267,1.4,1.7,-999,0.00,,,0.00,homebrew,2013-02-23 23:45:00,
2013-02-23 15:50:00,46.6,-99.9,30.21,SW,219,1.7,6.5,-999,0.00,,,0.00,homebrew,2013-02-23 23:50:00,
2013-02-23 15:55:00,46.0,-99.9,30.22,South,188,0.9,4.1,-999,0.00,,,0.00,homebrew,2013-02-23 23:55:00,
2013-02-23 16:05:00,45.5,-99.9,30.23,SSW,206,1.3,6.3,-999,0.00,,,0.00,homebrew,2013-02-24 00:05:00,
2013-02-23 16:10:00,45.2,-99.9,30.23,SSE,164,0.5,3.5,-999,0.00,,,0.00,homebrew,2013-02-24 00:10:00,
2013-02-23 16:15:00,44.7,-99.9,30.23,South,181,0.9,4.2,-999,0.00,,,0.00,homebrew,2013-02-24 00:15:00,
2013-02-23 16:20:00,44.2,-99.9,30.23,SSE,165,0.3,4.6,-999,0.00,,,0.00,homebrew,2013-02-24 00:20:00,
2013-02-23 16:25:00,43.9,-99.9,30.23,SSE,157,0.0,0.5,-999,0.01,,,0.01,homebrew,2013-02-24 00:25:00,
2013-02-23 16:30:00,43.6,-99.9,30.23,SSE,157,0.0,0.0,-999,0.01,,,0.01,homebrew,2013-02-24 00:30:00,
2013-02-23 16:35:00,43.5,-99.9,30.24,South,179,0.4,2.6,-999,0.01,,,0.01,homebrew,2013-02-24 00:35:00,
2013-02-23 16:40:00,43.6,-99.9,30.24,ESE,120,0.8,3.4,-999,0.01,,,0.01,homebrew,2013-02-24 00:40:00,
2013-02-23 16:45:00,43.6,-99.9,30.24,ESE,113,2.2,3.3,-999,0.01,,,0.01,homebrew,2013-02-24 00:45:00,
2013-02-23 16:50:00,43.5,-99.9,30.24,SSE,164,2.7,4.3,-999,0.02,,,0.02,homebrew,2013-02-24 00:50:00,
2013-02-23 16:55:00,43.7,-99.9,30.24,NE,52,3.1,5.8,-999,0.03,,,0.03,homebrew,2013-02-24 00:55:00,
2013-02-23 17:00:00,43.4,-99.9,30.24,NE,54,2.8,5.3,-999,0.03,,,0.03,homebrew,2013-02-24 01:00:00,
2013-02-23 17:10:00,42.4,-99.9,30.25,SE,142,0.8,3.0,-999,0.03,,,0.03,homebrew,2013-02-24 01:10:00,
2013-02-23 17:15:00,42.4,-99.9,30.25,ESE,123,1.2,2.9,-999,0.03,,,0.03,homebrew,2013-02-24 01:15:00,
2013-02-23 17:20:00,42.4,-99.9,30.25,NE,45,0.5,5.0,-999,0.03,,,0.04,homebrew,2013-02-24 01:20:00,
2013-02-23 17:30:00,42.4,-99.9,30.25,SE,130,0.4,3.6,-999,0.04,,,0.05,homebrew,2013-02-24 01:30:00,
2013-02-23 17:35:00,42.3,-99.9,30.26,SE,146,0.4,2.7,-999,0.04,,,0.05,homebrew,2013-02-24 01:35:00,
2013-02-23 17:40:00,42.1,-99.9,30.26,East,97,2.9,3.5,-999,0.05,,,0.06,homebrew,2013-02-24 01:40:00,
2013-02-23 17:45:00,41.9,-99.9,30.26,NE,41,1.7,3.9,-999,0.04,,,0.06,homebrew,2013-02-24 01:45:00,
2013-02-23 17:50:00,42.0,-99.9,30.27,ENE,74,2.1,3.7,-999,0.04,,,0.06,homebrew,2013-02-24 01:50:00,
2013-02-23 18:00:00,41.8,-99.9,30.27,ENE,72,1.2,3.7,-999,0.04,,,0.07,homebrew,2013-02-24 02:00:00,
2013-02-23 18:05:00,41.6,-99.9,30.27,ESE,107,2.2,6.1,-999,0.04,,,0.07,homebrew,2013-02-24 02:05:00,
2013-02-23 18:10:00,41.5,-99.9,30.27,ESE,123,2.7,5.7,-999,0.04,,,0.07,homebrew,2013-02-24 02:10:00,
2013-02-23 18:15:00,41.3,-99.9,30.28,ENE,78,4.0,7.3,-999,0.03,,,0.07,homebrew,2013-02-24 02:15:00,
2013-02-23 18:20:00,41.1,-99.9,30.27,East,93,3.1,6.7,-999,0.03,,,0.07,homebrew,2013-02-24 02:20:00,
2013-02-23 18:25:00,41.0,-99.9,30.28,East,85,4.7,7.1,-999,0.02,,,0.07,homebrew,2013-02-24 02:25:00,
2013-02-23 18:30:00,41.1,-99.9,30.28,East,91,4.2,7.4,-999,0.02,,,0.07,homebrew,2013-02-24 02:30:00,
2013-02-23 18:35:00,41.1,-99.9,30.28,East,84,4.6,7.3,-999,0.01,,,0.07,homebrew,2013-02-24 02:35:00,
2013-02-23 18:40:00,41.1,-99.9,30.28,ENE,77,3.6,8.4,-999,0.01,,,0.07,homebrew,2013-02-24 02:40:00,
2013-02-23 18:50:00,41.0,-99.9,30.29,East,89,3.9,7.3,-999,0.01,,,0.07,homebrew,2013-02-24 02:50:00,
2013-02-23 18:55:00,41.1,-99.9,30.29,East,92,2.2,6.6,-999,0.00,,,0.07,homebrew,2013-02-24 02:55:00,
2013-02-23 19:05:00,41.0,-99.9,30.29,East,96,3.9,7.1,-999,0.00,,,0.07,homebrew,2013-02-24 03:05:00,
2013-02-23 19:10:00,41.0,-99.9,30.29,ESE,103,2.9,6.2,-999,0.00,,,0.07,homebrew,2013-02-24 03:10:00,
2013-02-23 19:15:00,41.1,-99.9,30.30,East,98,3.8,5.9,-999,0.00,,,0.07,homebrew,2013-02-24 03:15:00,
2013-02-23 19:20:00,41.1,-99.9,30.30,East,86,3.2,6.2,-999,0.00,,,0.07,homebrew,2013-02-24 03:20:00,
2013-02-23 19:25:00,41.1,-99.9,30.30,East,93,0.5,5.1,-999,0.00,,,0.07,homebrew,2013-02-24 03:25:00,
2013-02-23 19:30:00,41.1,-99.9,30.30,ENE,78,2.5,5.2,-999,0.00,,,0.07,homebrew,2013-02-24 03:30:00,
2013-02-23 19:35:00,41.1,-99.9,30.30,ENE,75,2.4,5.1,-999,0.00,,,0.07,homebrew,2013-02-24 03:35:00,
2013-02-23 19:45:00,41.0,-99.9,30.31,ENE,63,2.7,5.7,-999,0.03,,,0.10,homebrew,2013-02-24 03:45:00,
2013-02-23 19:55:00,40.7,-99.9,30.31,East,88,3.1,4.6,-999,0.06,,,0.13,homebrew,2013-02-24 03:55:00,
2013-02-23 20:00:00,40.4,-99.9,30.32,East,79,2.6,6.6,-999,0.07,,,0.14,homebrew,2013-02-24 04:00:00,
2013-02-23 20:05:00,40.4,-99.9,30.32,ENE,61,2.3,4.5,-999,0.08,,,0.15,homebrew,2013-02-24 04:05:00,
2013-02-23 20:10:00,40.3,-99.9,30.32,ENE,78,2.5,5.5,-999,0.09,,,0.16,homebrew,2013-02-24 04:10:00,
2013-02-23 20:15:00,40.2,-99.9,30.32,East,80,3.5,6.6,-999,0.09,,,0.16,homebrew,2013-02-24 04:15:00,
2013-02-23 20:20:00,40.1,-99.9,30.32,ENE,68,3.8,5.8,-999,0.09,,,0.16,homebrew,2013-02-24 04:20:00,
2013-02-23 20:30:00,40.0,-99.9,30.32,ENE,78,3.8,6.2,-999,0.09,,,0.16,homebrew,2013-02-24 04:30:00,
2013-02-23 20:35:00,39.7,-99.9,30.32,ENE,78,4.5,6.5,-999,0.08,,,0.16,homebrew,2013-02-24 04:35:00,
2013-02-23 20:45:00,39.6,-99.9,30.32,ESE,116,2.4,7.0,-999,0.06,,,0.16,homebrew,2013-02-24 04:45:00,
2013-02-23 20:50:00,39.3,-99.9,30.32,SE,126,0.7,5.0,-999,0.04,,,0.16,homebrew,2013-02-24 04:50:00,
2013-02-23 20:55:00,39.4,-99.9,30.32,East,83,2.1,5.8,-999,0.03,,,0.16,homebrew,2013-02-24 04:55:00,
2013-02-23 21:00:00,39.4,-99.9,30.32,ESE,113,1.5,6.6,-999,0.01,,,0.16,homebrew,2013-02-24 05:00:00,
2013-02-23 21:05:00,39.6,-99.9,30.32,East,82,1.7,4.6,-999,0.01,,,0.16,homebrew,2013-02-24 05:05:00,
2013-02-23 21:10:00,39.5,-99.9,30.33,East,98,0.9,6.0,-999,0.00,,,0.16,homebrew,2013-02-24 05:10:00,
2013-02-23 21:15:00,39.5,-99.9,30.33,East,96,1.4,5.2,-999,0.00,,,0.16,homebrew,2013-02-24 05:15:00,
2013-02-23 21:20:00,39.5,-99.9,30.33,ESE,112,0.0,4.8,-999,0.00,,,0.16,homebrew,2013-02-24 05:20:00,
2013-02-23 21:25:00,39.5,-99.9,30.32,ESE,112,0.0,0.0,-999,0.00,,,0.16,homebrew,2013-02-24 05:25:00,
2013-02-23 21:35:00,39.4,-99.9,30.33,ESE,112,0.0,0.0,-999,0.00,,,0.16,homebrew,2013-02-24 05:35:00,
2013-02-23 21:40:00,39.3,-99.9,30.33,ESE,112,0.0,0.0,-999,0.00,,,0.16,homebrew,2013-02-24 05:40:00,
2013-02-23 21:45:00,39.3,-99.9,30.33,ESE,112,0.0,0.0,-999,0.00,,,0.16,homebrew,2013-02-24 05:45:00,
2013-02-23 21:50:00,39.3,-99.9,30.34,ESE,112,0.0,0.0,-999,0.00,,,0.16,homebrew,2013-02-24 05:50:00,
2013-02-23 21:55:00,39.4,-99.9,30.33,ESE,112,0.0,0.0,-999,0.00,,,0.16,homebrew,2013-02-24 05:55:00,
2013-02-23 22:00:00,39.3,-99.9,30.33,ESE,112,0.0,0.0,-999,0.00,,,0.16,homebrew,2013-02-24 06:00:00,
2013-02-23 22:05:00,39.2,-99.9,30.34,ESE,112,0.0,0.0,-999,0.00,,,0.16,homebrew,2013-02-24 06:05:00,
2013-02-23 22:10:00,39.2,-99.9,30.34,ESE,112,0.0,0.0,-999,0.00,,,0.16,homebrew,2013-02-24 06:10:00,
2013-02-23 22:15:00,39.1,-99.9,30.34,ESE,112,0.0,0.0,-999,0.00,,,0.16,homebrew,2013-02-24 06:15:00,
2013-02-23 22:20:00,39.1,-99.9,30.33,SE,134,0.7,0.0,-999,0.00,,,0.16,homebrew,2013-02-24 06:20:00,
2013-02-23 22:25:00,39.0,-99.9,30.33,ESE,120,1.0,5.0,-999,0.00,,,0.16,homebrew,2013-02-24 06:25:00,
2013-02-23 22:30:00,39.1,-99.9,30.34,SSE,166,0.5,5.9,-999,0.00,,,0.16,homebrew,2013-02-24 06:30:00,
2013-02-23 22:40:00,39.1,-99.9,30.34,SE,138,0.9,5.5,-999,0.00,,,0.16,homebrew,2013-02-24 06:40:00,
2013-02-23 22:45:00,39.2,-99.9,30.34,South,189,1.8,7.9,-999,0.00,,,0.16,homebrew,2013-02-24 06:45:00,
2013-02-23 22:50:00,39.3,-99.9,30.34,South,181,2.1,7.8,-999,0.00,,,0.16,homebrew,2013-02-24 06:50:00,
2013-02-23 22:55:00,39.4,-99.9,30.34,South,186,1.7,6.3,-999,0.00,,,0.16,homebrew,2013-02-24 06:55:00,
2013-02-23 23:00:00,39.4,-99.9,30.34,SSW,204,1.3,6.5,-999,0.00,,,0.16,homebrew,2013-02-24 07:00:00,
2013-02-23 23:05:00,39.3,-99.9,30.34,South,186,1.5,4.8,-999,0.00,,,0.16,homebrew,2013-02-24 07:05:00,
2013-02-23 23:10:00,39.4,-99.9,30.34,South,184,1.4,9.1,-999,0.00,,,0.16,homebrew,2013-02-24 07:10:00,
2013-02-23 23:15:00,39.5,-99.9,30.34,South,190,2.5,9.8,-999,0.00,,,0.16,homebrew,2013-02-24 07:15:00,
2013-02-23 23:20:00,39.5,-99.9,30.34,South,171,2.0,7.0,-999,0.00,,,0.16,homebrew,2013-02-24 07:20:00,
2013-02-23 23:25:00,39.6,-99.9,30.34,South,179,2.2,6.7,-999,0.00,,,0.16,homebrew,2013-02-24 07:25:00,
2013-02-23 23:30:00,39.6,-99.9,30.34,SSW,202,3.8,11.8,-999,0.00,,,0.16,homebrew,2013-02-24 07:30:00,
2013-02-23 23:35:00,39.7,-99.9,30.34,South,184,1.6,8.3,-999,0.00,,,0.16,homebrew,2013-02-24 07:35:00,
2013-02-23 23:45:00,39.7,-99.9,30.34,South,189,3.1,8.8,-999,0.00,,,0.00,homebrew,2013-02-24 07:45:00,
2013-02-23 23:50:00,39.6,-99.9,30.35,SSW,198,3.2,10.4,-999,0.00,,,0.00,homebrew,2013-02-24 07:50:00,